Погода в Степанове

Россия / Костромская область     58°27′25″N   42°30′21″E
темп.,
°C
ветер,
м/с
пор.,
м/с
влажн.,
%
обл.,
%
осадки,
мм/ч
давл.,
гПа
погр.,
м
11 апреля, вс
вс1100:00+1ю414840 0.0 1024360
03:000ю314865 0.0 1025364
06:00−1ююз3118763 0.0 1025296
09:00+4зюз358058 0.0 1027374
12:00+8зюз357684 0.0 1028917
15:00+8з258094 0.1 1030747
18:00+5з1196100 0.1 103110
21:00+1зюз119637 0.1 103410
12 апреля, пн
пн1200:00+3св009797 0.0 103511
03:00+3в1196100 0.0 103737
06:00+3вюв2694100 0.0 1037127
09:00+6юв258329 0.0 1038297
12:00+10ююв347022 0.0 1037704
15:00+12ююв346543 0.0 1036906
18:00+10юв2681100 0.0 1035154
21:00+7юв41188100 0.0 1035359
13 апреля, вт
вт1300:00+6юв31193100 0.0 1033394
03:00+5юв31196100 0.0 1032383
06:00+5ююв3997100 0.0 1031359
09:00+7ю479197 0.0 1029345
12:00+14ю486659 0.0 1028628
15:00+16ю4960100 0.0 10261066
18:00+14ю3975100 0.0 1026285
21:00+10ю31086100 0.0 1026213
14 апреля, ср
ср1400:00+8ю2983100 0.0 1025164
03:00+7ю268390 0.0 1025105
06:00+6ю278050 0.0 1024115
09:00+12ююз376076 0.0 1024325
12:00+17ююз475010 0.0 1022779
15:00+18ююз4845100 0.0 10211310
18:00+15ююз3754100 0.0 1020210
21:00+11ю267190 0.0 1021114
15 апреля, чт
чт1500:00+9ююз2274100 0.0 102037
03:00+7зюз1178100 0.0 102010
06:00+6ссв2291100 0.0 102052
09:00+9ссв2283100 0.0 1020334
12:00+11с2273100 0.0 1020605
15:00+11ссв3369100 0.0 1020783
18:00+7с4782100 0.0 1021528
21:00+3ссв41295100 0.1 1023469